Aiwamaru — JD2602 — position and weather

sailwx.info

Track history (hours):
 
Tides and Currents Weather Stations Pressure Air Temp Water Temp Dewpoint Dewpoint Depression Visibility Wind Speed Wind Dir Waves Ship Positions

Aiwamaru

Last reported at 2017-Feb-27 11:16 UTC. Time now 2017-Jul-25 18:49 UTC.
Position N 34°03' E 132°41'.
Warning: this ship's position is months out of date.

Length 64 m; draft 4.8 m.

Type: Tanker. MMSI: 431000508.

Date/timePositionNaut miles runAvg speedWind from/ knotsBaromVisibWave heightAir tempDewpointWater temp
2017-Feb-27 11:16N 34°03' E 132°41'912.4
2017-Feb-27 10:32N 33°57' E 132°32'1212.3
2017-Feb-27 09:33N 33°50' E 132°20'20 9.9
2017-Feb-27 07:29N 33°51' E 131°55'6 0.3
2017-Feb-26 14:09N 33°52' E 132°02'811.4
2017-Feb-26 13:27N 33°50' E 132°11'1112.1
2017-Feb-26 12:33N 33°51' E 132°24'1211.3
2017-Feb-26 11:31N 33°59' E 132°34'  
2017-Feb-21 10:22N 33°58' E 132°34'911.5
2017-Feb-21 09:33N 33°52' E 132°26'1211.6
2017-Feb-21 08:31N 33°49' E 132°11'13 9.6
2017-Feb-21 07:08N 33°51' E 131°55'12 0.6
2017-Feb-20 11:28N 33°50' E 132°09'1011.3
2017-Feb-20 10:32N 33°60' E 132°14'2 0.4
2017-Feb-20 05:23N 34°01' E 132°16'1011.3
2017-Feb-20 04:32N 33°52' E 132°10'3 0.2
2017-Feb-19 11:27N 33°50' E 132°09'2511.1
2017-Feb-19 09:11N 34°08' E 132°30'12 3.2
2017-Feb-19 05:32N 34°02' E 132°18'1111.2
2017-Feb-19 04:33N 33°53' E 132°10'6 0.4
2017-Feb-18 13:11N 33°52' E 132°02'3 3.8
2017-Feb-18 12:29N 33°52' E 132°06'7 5.6
2017-Feb-18 11:13N 33°57' E 132°11'2 0.3
2017-Feb-18 05:25N 33°58' E 132°12'9 8.3
2017-Feb-18 04:19N 33°51' E 132°06'  
Track history (hours):
 
Tides and Currents Weather Stations Pressure Air Temp Water Temp Dewpoint Dewpoint Depression Visibility Wind Speed Wind Dir Waves Ship Positions

Aiwamaru

Last reported at 2017-Feb-27 11:16 UTC. Time now 2017-Jul-25 18:49 UTC.
Position N 34°03' E 132°41'.
Warning: this ship's position is months out of date.

Length 64 m; draft 4.8 m.

Type: Tanker. MMSI: 431000508.

Date/timePositionNaut miles runAvg speedWind from/ knotsBaromVisibWave heightAir tempDewpointWater temp
2017-Feb-27 11:16N 34°03' E 132°41'912.4
2017-Feb-27 10:32N 33°57' E 132°32'1212.3
2017-Feb-27 09:33N 33°50' E 132°20'20 9.9
2017-Feb-27 07:29N 33°51' E 131°55'6 0.3
2017-Feb-26 14:09N 33°52' E 132°02'811.4
2017-Feb-26 13:27N 33°50' E 132°11'1112.1
2017-Feb-26 12:33N 33°51' E 132°24'1211.3
2017-Feb-26 11:31N 33°59' E 132°34'  
2017-Feb-21 10:22N 33°58' E 132°34'911.5
2017-Feb-21 09:33N 33°52' E 132°26'1211.6
2017-Feb-21 08:31N 33°49' E 132°11'13 9.6
2017-Feb-21 07:08N 33°51' E 131°55'12 0.6
2017-Feb-20 11:28N 33°50' E 132°09'1011.3
2017-Feb-20 10:32N 33°60' E 132°14'2 0.4
2017-Feb-20 05:23N 34°01' E 132°16'1011.3
2017-Feb-20 04:32N 33°52' E 132°10'3 0.2
2017-Feb-19 11:27N 33°50' E 132°09'2511.1
2017-Feb-19 09:11N 34°08' E 132°30'12 3.2
2017-Feb-19 05:32N 34°02' E 132°18'1111.2
2017-Feb-19 04:33N 33°53' E 132°10'6 0.4
2017-Feb-18 13:11N 33°52' E 132°02'3 3.8
2017-Feb-18 12:29N 33°52' E 132°06'7 5.6
2017-Feb-18 11:13N 33°57' E 132°11'2 0.3
2017-Feb-18 05:25N 33°58' E 132°12'9 8.3
2017-Feb-18 04:19N 33°51' E 132°06'  

Dump ship's entire track history